FW4741 Weather Reports


Display with metric or nautical units.
time (UTC)temp
F
wind
direction
speed
MPH
gust
MPH
rain 1hr
in
rain 24hr
in
rain mn
in
humidity
%
barometer
mb
20260506084603 65 77 2.0 6.0 0.00 0.00 0.00 62 1021.8
20260506084103 65 77 2.0 6.0 0.00 0.00 0.00 59 1021.8
20260506083603 66 77 2.0 6.0 0.00 0.00 0.00 58 1021.7
20260506083104 66 77 2.0 6.0 0.00 0.00 0.00 58 1021.7
20260506082603 66 77 2.0 6.0 0.00 0.00 0.00 58 1021.8
20260506082103 66 77 2.0 6.0 0.00 0.00 0.00 57 1021.8
20260506081603 66 77 2.0 6.0 0.00 0.00 0.00 58 1021.8
20260506081102 66 77 2.0 6.0 0.00 0.00 0.00 58 1021.8
20260506080603 66 77 2.0 6.0 0.00 0.00 0.00 57 1021.8
20260506080103 66 77 2.0 6.0 0.00 0.00 0.00 57 1021.8
20260506073102 67 77 2.0 6.0 0.00 0.00 0.00 57 1021.9
20260506072603 67 77 2.0 6.0 0.00 0.00 0.00 57 1022.0
20260506072103 67 77 2.0 6.0 0.00 0.00 0.00 57 1022.0
20260506071603 67 77 2.0 6.0 0.00 0.00 0.00 56 1022.0
20260506070103 66 77 2.0 6.0 0.00 0.00 0.00 57 1022.1
20260506062103 68 77 2.0 6.0 0.00 0.00 0.00 54 1022.3
20260506061603 67 77 2.0 6.0 0.00 0.00 0.00 56 1022.4
20260506061102 67 77 2.0 6.0 0.00 0.00 0.00 57 1022.4
20260506060603 67 77 2.0 6.0 0.00 0.00 0.00 58 1022.5
20260506051103 67 77 2.0 6.0 0.00 0.00 0.00 57 1022.5
20260506050603 68 77 2.0 6.0 0.00 0.00 0.00 57 1022.4
20260506050103 68 77 2.0 6.0 0.00 0.00 0.00 55 1022.4
20260506045103 69 77 2.0 6.0 0.00 0.00 0.00 53 1022.3
20260506044603 69 77 2.0 6.0 0.00 0.00 0.00 53 1022.2
20260506044103 70 77 2.0 6.0 0.00 0.00 0.00 52 1022.2
20260506043604 70 77 2.0 6.0 0.00 0.00 0.00 53 1022.2
20260506043103 70 77 2.0 6.0 0.00 0.00 0.00 52 1022.2
20260506042603 70 77 2.0 6.0 0.00 0.00 0.00 52 1022.1
20260506042103 71 77 2.0 6.0 0.00 0.00 0.00 52 1022.0
20260506041603 71 77 2.0 6.0 0.00 0.00 0.00 51 1022.0
20260506041103 71 77 2.0 6.0 0.00 0.00 0.00 49 1022.0
20260506035603 71 77 2.0 6.0 0.00 0.00 0.00 50 1021.8
20260506035103 72 77 2.0 6.0 0.00 0.00 0.00 50 1021.8
20260506034603 72 77 2.0 6.0 0.00 0.00 0.00 49 1021.8
20260506034103 72 77 2.0 6.0 0.00 0.00 0.00 48 1021.7
20260506033103 72 77 2.0 6.0 0.00 0.00 0.00 49 1021.7
20260506032603 72 77 2.0 6.0 0.00 0.00 0.00 48 1021.7
20260506032103 72 77 2.0 6.0 0.00 0.00 0.00 48 1021.6
20260506030603 73 77 2.0 6.0 0.00 0.00 0.00 47 1021.3
20260506030103 73 77 2.0 6.0 0.00 0.00 0.00 47 1021.3
20260506025603 74 77 2.0 6.0 0.00 0.00 0.00 46 1021.2
20260506025103 74 77 2.0 6.0 0.00 0.00 0.00 46 1021.1
20260506024603 74 77 2.0 6.0 0.00 0.00 0.00 46 1021.1
20260506023603 76 77 2.0 6.0 0.00 0.00 0.00 43 1021.0
20260506023103 76 77 2.0 6.0 0.00 0.00 0.00 43 1021.0
20260506022103 77 77 2.0 6.0 0.00 0.00 0.00 42 1021.0
20260506021603 77 77 2.0 6.0 0.00 0.00 0.00 42 1020.9
20260506020103 78 77 2.0 6.0 0.00 0.00 0.00 41 1020.8
20260506015603 79 77 2.0 6.0 0.00 0.00 0.00 40 1020.6
20260506015103 80 77 2.0 6.0 0.00 0.00 0.00 39 1020.5
20260506014603 80 77 2.0 6.0 0.00 0.00 0.00 39 1020.5
20260506014103 80 77 2.0 6.0 0.00 0.00 0.00 38 1020.6
20260506013603 80 77 2.0 6.0 0.00 0.00 0.00 38 1020.5
20260506013103 80 77 2.0 6.0 0.00 0.00 0.00 38 1020.4
20260506012603 81 77 2.0 6.0 0.00 0.00 0.00 38 1020.4
20260506012103 81 77 2.0 6.0 0.00 0.00 0.00 38 1020.3
20260506011103 81 77 2.0 6.0 0.00 0.00 0.00 37 1020.2
20260506010104 82 77 2.0 6.0 0.00 0.00 0.00 37 1020.2
20260506005603 82 77 2.0 6.0 0.00 0.00 0.00 37 1020.2
20260506005103 83 77 2.0 6.0 0.00 0.00 0.00 36 1020.2
20260506004604 83 77 2.0 6.0 0.00 0.00 0.00 35 1020.1
20260506004103 83 77 2.0 6.0 0.00 0.00 0.00 35 1020.1
20260506003603 83 77 2.0 6.0 0.00 0.00 0.00 35 1020.0
20260506003103 84 77 2.0 6.0 0.00 0.00 0.00 35 1019.9
20260506002603 84 77 2.0 6.0 0.00 0.00 0.00 34 1019.9
20260506001603 84 77 2.0 6.0 0.00 0.00 0.00 34 1019.8
20260506000603 84 77 2.0 6.0 0.00 0.00 0.00 34 1019.7
20260505235603 85 77 2.0 6.0 0.00 0.00 0.00 34 1019.5
20260505235103 85 77 2.0 6.0 0.00 0.00 0.00 33 1019.5
20260505234603 85 77 2.0 6.0 0.00 0.00 0.00 33 1019.4
20260505234104 85 77 2.0 6.0 0.00 0.00 0.00 33 1019.4
20260505233603 85 77 2.0 6.0 0.00 0.00 0.00 33 1019.4
20260505233103 85 77 2.0 6.0 0.00 0.00 0.00 33 1019.4
20260505232602 85 77 2.0 6.0 0.00 0.00 0.00 33 1019.4
20260505232103 86 77 2.0 6.0 0.00 0.00 0.00 33 1019.3
20260505231603 86 77 2.0 6.0 0.00 0.00 0.00 32 1019.4
20260505231103 85 77 2.0 6.0 0.00 0.00 0.00 33 1019.4
20260505230603 85 77 2.0 6.0 0.00 0.00 0.00 32 1019.5
20260505225603 85 77 2.0 6.0 0.00 0.00 0.00 33 1019.5
20260505225103 86 77 2.0 6.0 0.00 0.00 0.00 32 1019.5
20260505224603 86 77 2.0 6.0 0.00 0.00 0.00 33 1019.5
20260505224104 86 77 2.0 6.0 0.00 0.00 0.00 33 1019.5
20260505223603 86 77 2.0 6.0 0.00 0.00 0.00 33 1019.6
20260505222603 85 77 2.0 6.0 0.00 0.00 0.00 33 1019.7
20260505222103 86 77 2.0 6.0 0.00 0.00 0.00 33 1019.7
20260505221604 85 77 2.0 6.0 0.00 0.00 0.00 34 1019.8
20260505220604 86 77 2.0 6.0 0.00 0.00 0.00 33 1019.8
20260505215603 86 77 2.0 6.0 0.00 0.00 0.00 34 1019.9
20260505215103 86 77 2.0 6.0 0.00 0.00 0.00 33 1019.9
20260505214103 85 77 2.0 6.0 0.00 0.00 0.00 34 1020.0
20260505213603 86 77 2.0 6.0 0.00 0.00 0.00 34 1020.0
20260505213103 85 77 2.0 6.0 0.00 0.00 0.00 34 1020.0
20260505212603 85 77 2.0 6.0 0.00 0.00 0.00 34 1020.2
20260505212103 85 77 2.0 6.0 0.00 0.00 0.00 34 1020.2
20260505211603 85 77 2.0 6.0 0.00 0.00 0.00 34 1020.3
20260505211103 85 77 2.0 6.0 0.00 0.00 0.00 35 1020.3
20260505210603 85 77 2.0 6.0 0.00 0.00 0.00 35 1020.3
20260505205602 85 77 2.0 6.0 0.00 0.00 0.00 35 1020.5
20260505205104 85 77 2.0 6.0 0.00 0.00 0.00 35 1020.6
20260505204603 85 77 2.0 6.0 0.00 0.00 0.00 35 1020.6
20260505204103 84 77 2.0 6.0 0.00 0.00 0.00 35 1020.7
20260505203604 84 77 2.0 6.0 0.00 0.00 0.00 35 1020.7
20260505203103 84 77 2.0 6.0 0.00 0.00 0.00 35 1020.7
20260505202103 84 77 2.0 6.0 0.00 0.00 0.00 36 1020.9
20260505201603 84 77 2.0 6.0 0.00 0.00 0.00 36 1020.9
20260505201103 84 77 2.0 6.0 0.00 0.00 0.00 36 1020.9
20260505200603 84 77 2.0 6.0 0.00 0.00 0.00 35 1021.0
20260505195603 84 77 2.0 6.0 0.00 0.00 0.00 36 1021.1
20260505195103 84 77 2.0 6.0 0.00 0.00 0.00 35 1021.2
20260505194603 84 77 2.0 6.0 0.00 0.00 0.00 36 1021.2
20260505193103 84 77 2.0 6.0 0.00 0.00 0.00 35 1021.4
20260505192603 84 77 2.0 6.0 0.00 0.00 0.00 35 1021.4
20260505192103 84 77 2.0 6.0 0.00 0.00 0.00 36 1021.5
20260505191603 84 77 2.0 6.0 0.00 0.00 0.00 35 1021.6
20260505191103 83 77 2.0 6.0 0.00 0.00 0.00 36 1021.7
20260505190603 83 77 2.0 6.0 0.00 0.00 0.00 36 1021.7
20260505190103 83 77 2.0 6.0 0.00 0.00 0.00 37 1021.8
20260505185603 83 77 2.0 6.0 0.00 0.00 0.00 36 1021.8
20260505185103 83 77 2.0 6.0 0.00 0.00 0.00 37 1021.9
20260505184603 82 77 2.0 6.0 0.00 0.00 0.00 37 1022.0
20260505184103 82 77 2.0 6.0 0.00 0.00 0.00 37 1022.1
20260505183103 81 77 2.0 6.0 0.00 0.00 0.00 36 1022.2
20260505182603 81 77 2.0 6.0 0.00 0.00 0.00 36 1022.2
20260505182102 81 77 2.0 6.0 0.00 0.00 0.00 37 1022.3
20260505181604 81 77 2.0 6.0 0.00 0.00 0.00 38 1022.4
20260505181103 81 77 2.0 6.0 0.00 0.00 0.00 37 1022.4
20260505180603 81 77 2.0 6.0 0.00 0.00 0.00 37 1022.5
20260505175103 80 77 2.0 6.0 0.00 0.00 0.00 37 1022.6
20260505173603 80 77 2.0 6.0 0.00 0.00 0.00 37 1022.8
20260505173103 80 77 2.0 6.0 0.00 0.00 0.00 37 1022.9
20260505172604 80 77 2.0 6.0 0.00 0.00 0.00 38 1023.0
20260505172103 80 77 2.0 6.0 0.00 0.00 0.00 36 1023.1
20260505171603 80 77 2.0 6.0 0.00 0.00 0.00 36 1023.1
20260505171103 79 77 2.0 6.0 0.00 0.00 0.00 39 1023.1
20260505170603 79 77 2.0 6.0 0.00 0.00 0.00 38 1023.1
20260505170103 79 77 2.0 6.0 0.00 0.00 0.00 39 1023.1
20260505165603 79 77 2.0 6.0 0.00 0.00 0.00 39 1023.2
20260505165103 78 77 2.0 6.0 0.00 0.00 0.00 37 1023.3
20260505164603 78 77 2.0 6.0 0.00 0.00 0.00 40 1023.3
20260505164104 78 77 2.0 6.0 0.00 0.00 0.00 38 1023.3
20260505163603 78 77 2.0 6.0 0.00 0.00 0.00 41 1023.3
20260505163104 77 77 2.0 6.0 0.00 0.00 0.00 39 1023.3
20260505162103 77 77 2.0 6.0 0.00 0.00 0.00 40 1023.4
20260505161104 76 77 2.0 6.0 0.00 0.00 0.00 41 1023.5
20260505160603 76 77 2.0 6.0 0.00 0.00 0.00 41 1023.5
20260505152603 74 77 2.0 6.0 0.00 0.00 0.00 48 1023.5
20260505152103 73 77 2.0 6.0 0.00 0.00 0.00 49 1023.6
20260505151603 72 77 2.0 6.0 0.00 0.00 0.00 50 1023.6
20260505151104 72 77 2.0 6.0 0.00 0.00 0.00 50 1023.7
20260505150603 71 77 2.0 6.0 0.00 0.00 0.00 51 1023.7
20260505140603 63 77 2.0 6.0 0.00 0.00 0.00 60 1023.6
20260505140104 63 77 2.0 6.0 0.00 0.00 0.00 61 1023.6
20260505130103 58 77 2.0 6.0 0.00 0.00 0.00 67 1023.3
20260505124603 58 77 2.0 6.0 0.00 0.00 0.00 70 1023.3
20260505124103 58 77 2.0 6.0 0.00 0.00 0.00 68 1023.2
20260505123603 59 77 2.0 6.0 0.00 0.00 0.00 67 1023.2
20260505123103 59 77 2.0 6.0 0.00 0.00 0.00 65 1023.1
20260505122603 59 77 2.0 6.0 0.00 0.00 0.00 65 1023.0
20260505121603 59 77 2.0 6.0 0.00 0.00 0.00 66 1022.9
20260505121103 59 77 2.0 6.0 0.00 0.00 0.00 65 1022.8
20260505120603 59 77 2.0 6.0 0.00 0.00 0.00 65 1022.8
20260505120103 59 77 2.0 6.0 0.00 0.00 0.00 65 1022.7
20260505115603 59 77 2.0 6.0 0.00 0.00 0.00 65 1022.7
20260505115103 59 77 2.0 6.0 0.00 0.00 0.00 65 1022.6
20260505114603 59 77 2.0 6.0 0.00 0.00 0.00 65 1022.6
20260505114103 59 77 2.0 6.0 0.00 0.00 0.00 65 1022.5
20260505113603 59 77 2.0 6.0 0.00 0.00 0.00 66 1022.5
20260505113103 59 77 2.0 6.0 0.00 0.00 0.00 66 1022.5
20260505112103 59 77 2.0 6.0 0.00 0.00 0.00 66 1022.5
20260505111603 59 77 2.0 6.0 0.00 0.00 0.00 65 1022.4
20260505111103 59 77 2.0 6.0 0.00 0.00 0.00 65 1022.4
20260505110603 59 77 2.0 6.0 0.00 0.00 0.00 65 1022.4
20260505110104 59 77 2.0 6.0 0.00 0.00 0.00 65 1022.4
20260505102103 61 77 2.0 6.0 0.00 0.00 0.00 62 1022.3
20260505101603 61 77 2.0 6.0 0.00 0.00 0.00 62 1022.3
20260505101103 61 77 2.0 6.0 0.00 0.00 0.00 62 1022.3
20260505100603 61 77 2.0 6.0 0.00 0.00 0.00 62 1022.3
20260505100103 61 77 2.0 6.0 0.00 0.00 0.00 61 1022.3
20260505095103 62 77 2.0 6.0 0.00 0.00 0.00 60 1022.3
20260505094603 62 77 2.0 6.0 0.00 0.00 0.00 59 1022.3
20260505094103 62 77 2.0 6.0 0.00 0.00 0.00 59 1022.3
20260505093603 61 77 2.0 6.0 0.00 0.00 0.00 60 1022.3
20260505093103 61 77 2.0 6.0 0.00 0.00 0.00 61 1022.3
20260505092603 61 77 2.0 6.0 0.00 0.00 0.00 62 1022.3
20260505092103 60 77 2.0 6.0 0.00 0.00 0.00 63 1022.4
20260505091603 61 77 2.0 6.0 0.00 0.00 0.00 62 1022.3
20260505091104 62 77 2.0 6.0 0.00 0.00 0.00 61 1022.3
20260505090603 62 77 2.0 6.0 0.00 0.00 0.00 59 1022.3
20260505085603 62 77 2.0 6.0 0.00 0.00 0.00 59 1022.2
20260505085103 62 77 2.0 6.0 0.00 0.00 0.00 58 1022.2